Date,TemperatureHighF,TemperatureAvgF,TemperatureLowF,DewpointHighF,DewpointAvgF,DewpointLowF,HumidityHigh,HumidityAvg,HumidityLow,PressureMaxIn,PressureMinIn,WindSpeedMaxMPH,WindSpeedAvgMPH,GustSpeedMaxMPH,PrecipitationSumIn
2013-12-1,48.0,43.2,31.0,48.0,43.0,31.0,99,99,94,30.47,30.06,7,2,16,0.25
2013-12-2,42.0,36.4,34.0,42.0,36.4,34.0,99,99,99,30.06,29.95,1,0,16,0.05
2013-12-3,49.0,37.7,31.0,44.0,36.8,31.0,99,96,81,30.01,29.89,7,1,15,0.00
2013-12-4,46.0,35.9,29.0,42.0,35.3,29.0,99,97,78,30.23,30.01,5,1,15,0.00
2013-12-5,53.0,48.0,35.0,53.0,48.0,35.0,99,99,99,30.23,30.01,4,0,13,0.00
2013-12-6,54.0,48.3,38.0,54.0,48.3,37.0,99,99,99,30.15,29.94,8,2,16,0.51
2013-12-7,37.0,33.4,28.0,37.0,31.5,-99.9,99,95,85,30.52,30.11,9,3,26,0.67
2013-12-8,31.0,27.5,26.0,29.0,26.8,25.0,99,96,82,30.62,30.49,5,0,26,0.01
2013-12-9,39.0,33.6,28.0,39.0,33.6,28.0,99,99,96,30.49,29.95,8,3,21,0.23
2013-12-17,27.0,24.9,22.0,27.0,24.9,22.0,99,99,99,30.27,29.95,10,6,24,0.00
2013-12-18,27.0,25.8,24.0,27.0,25.8,24.0,99,99,99,29.97,29.88,7,3,24,0.00
2013-12-19,45.0,40.8,30.0,40.0,36.7,29.0,99,86,76,30.16,30.04,6,2,18,0.02
2013-12-20,50.0,46.2,37.0,48.0,45.1,37.0,99,96,84,30.16,30.02,6,2,14,0.00
2013-12-21,53.0,49.8,47.0,53.0,48.6,-99.9,99,98,98,30.06,29.96,5,2,15,0.00
2013-12-22,60.0,55.4,52.0,60.0,55.4,52.0,99,99,99,30.04,29.91,9,2,20,0.02
2013-12-23,56.0,45.2,38.0,56.0,45.2,38.0,99,99,99,30.11,29.96,7,1,25,0.76
2013-12-26,40.0,33.3,28.0,40.0,33.3,28.0,99,99,98,30.47,30.14,4,1,17,0.06
2013-12-27,32.0,29.8,29.0,32.0,29.8,29.0,99,99,99,30.35,30.27,3,1,17,0.06
2013-12-28,49.0,44.0,35.0,41.0,33.3,-99.9,99,73,59,30.23,30.08,8,3,21,0.00
2013-12-29,47.0,44.7,41.0,47.0,44.7,41.0,99,99,99,30.10,29.38,10,3,30,0.78
2013-12-30,45.0,40.2,37.0,45.0,40.2,37.0,99,99,96,29.95,29.57,8,2,30,0.78